Regional Weather Roundup
Issued by NWS

Home | Current Version | Previous Version | Text Only | Print | Product List | Glossary Off
Versions: 1 2 3 4 5 6 7 8 9 10 11 12 13 14 15 16 17 18 19 20 21 22 23 24 25 26 27 28 29 30 31 32 33 34 35 36 37 38 39 40 41 42 43 44 45 46 47 48 49 50

000
ASUS43 KLMK 282310
RWRKY
KENTUCKY REGIONAL WEATHER ROUNDUP
NATIONAL WEATHER SERVICE LOUISVILLE KY
700 PM EDT SAT MAY 28 2016

NOTE "FAIR" INDICATES FEW OR NO CLOUDS BELOW 12,000 FEET
WITH NO SIGNIFICANT WEATHER AND/OR OBSTRUCTIONS TO VISIBILITY.

KYZ001>023-026-027-061>063-070>075-290000-
WESTERN AND SOUTH CENTRAL KENTUCKY

CITY           SKY/WX    TMP DP  RH WIND       PRES   REMARKS
PADUCAH        MOSUNNY   81  68  64 VRB6      30.00S
HENDERSON      MOSUNNY   81  64  57 S13       30.01S
OWENSBORO      CLOUDY    82  69  64 S13       30.04F
HOPKINSVILLE   SUNNY     82  67  60 SE10      30.03F
BOWLING GREEN  CLOUDY    78  66  66 S8        30.06F
GLASGOW        CLOUDY    74  65  73 SW3       30.08F
$$

KYZ024-025-028>034-038-045-046-053-290000-
NORTH CENTRAL KENTUCKY

CITY           SKY/WX    TMP DP  RH WIND       PRES   REMARKS
LOUISVILLE/SDF PTSUNNY   76  65  68 S5        30.06S
LOUISVILLE/LOU CLOUDY    77  63  61 SW7       30.07S
FORT KNOX      CLOUDY    72  66  83 S7        30.06F
$$

KYZ035>037-039>044-047>052-055>060-089>105-290000-
NORTHEAST KENTUCKY

CITY           SKY/WX    TMP DP  RH WIND       PRES   REMARKS
LEXINGTON      PTSUNNY   80  60  50 W8G18     30.09S
COVINGTON      PTSUNNY   80  62  54 S8        30.07S
FRANKFORT      CLOUDY    78  62  57 SW6       30.08S
$$

KYZ054-064>069-076>088-106>120-290000-
SOUTHEAST KENTUCKY

CITY           SKY/WX    TMP DP  RH WIND       PRES   REMARKS
JACKSON        MOSUNNY   80  63  55 CALM      30.12S
LONDON         CLOUDY    83  60  45 SE5       30.10F
SOMERSET       SUNNY     81  59  47 CALM      30.10S
MIDDLESBORO    SUNNY     82  62  50 S3        30.12R
MONTICELLO     PTCLDY    80  66  62 W8G17     30.11S
$$




USA.gov is the U.S. government's official web portal to all federal, state and local government web resources and services.